Miscellaneous Local Product
Issued by NWS Hastings, NE

Home | Current Version | Previous Version | Text Only | Print | Product List | Glossary On
Versions: 1 2 3 4 5 6 7 8 9 10 11 12 13 14 15 16 17 18 19 20 21 22 23 24 25 26 27 28 29 30 31 32 33 34 35 36 37 38 39 40 41 42 43 44 45 46 47 48 49 50
573
AXUS43 KGID 220502
MISGRI

GID CWA HOURLY WEATHER ROUNDUP
NATIONAL WEATHER SERVICE HASTINGS NE
1200 AM CDT SUN OCT 22 2017

NOTE: "FAIR" INDICATES FEW OR NO CLOUDS BELOW 12,000 FEET WITH NO
SIGNIFICANT WEATHER AND/OR OBSTRUCTIONS TO VISIBILITY.

...SOUTH CENTRAL NEBRASKA...

CITY           SKY/WX    TMP DP  RH WIND       PRES   REMARKS
GRAND ISLAND   PTCLDY    41  38  89 SW3       30.03R
KEARNEY        PTCLDY    40  34  79 SW6       30.04R
HASTINGS       CLOUDY    42  36  79 CALM      30.03R
ORD            CLEAR     35  32  88 CALM      30.00F
YORK           CLOUDY    39  39 100 CALM      30.03R
AURORA         CLOUDY    40  37  90 W5        30.03R
LEXINGTON      CLOUDY    37  29  73 W5        30.04S WCI  33
HOLDREGE       CLOUDY    41  31  67 W5        30.04R
HEBRON         CLOUDY    47  42  82 W3        30.03R

...NEBRASKA PANHANDLE...

CITY           SKY/WX    TMP DP  RH WIND       PRES   REMARKS
CHADRON        CLEAR     29  13  51 W7        30.03R WCI  22
ALLIANCE       CLEAR     26  19  74 W9        30.05S HAZE    WCI  17
SCOTTSBLUFF    CLEAR     36  18  48 NW9       30.07S WCI  29
SIDNEY         CLEAR     36  17  46 W12       30.10F WCI  28

...WESTERN AND NORTH CENTRAL NEBRASKA...

CITY           SKY/WX    TMP DP  RH WIND       PRES   REMARKS
VALENTINE      CLEAR     33  28  81 SW7       30.01R WCI  27
AINSWORTH      CLEAR     33  29  86 SW5       30.01F WCI  29
ONEILL         CLEAR     40  32  72 W6        30.00S
BROKEN BOW     CLEAR     39  27  62 CALM      30.02R
IMPERIAL       CLEAR     42  20  41 W10       30.07F
NORTH PLATTE   CLEAR     31  26  82 NW6       30.05F WCI  25
MCCOOK         CLEAR     40  25  55 W7        30.08R

...EASTERN NEBRASKA...

CITY           SKY/WX    TMP DP  RH WIND       PRES   REMARKS
NORFOLK        CLEAR     39  36  89 CALM      29.98F
SO SIOUX CITY  PTCLDY    42  39  89 CALM      29.97R
TEKAMAH        CLOUDY    46  39  76 W6        29.98S
COLUMBUS       CLOUDY    40  37  89 CALM      30.01F
ALBION         CLEAR     37  34  91 CALM      30.01S
OMAHA EPPLEY   CLOUDY    52  40  63 CALM      29.99S
OFFUTT AFB     CLOUDY    50  43  77 CALM      29.98F
MILLARD        CLOUDY    52  42  70 CALM      29.99R
LINCOLN        MOCLDY    50  39  66 W5        30.02R
NEBRASKA CITY  CLOUDY    52  42  67 N3        30.01R
BEATRICE       CLOUDY    49  42  77 CALM      30.01S
FALLS CITY     CLOUDY    54  43  66 NW6       29.99S

...NORTHERN KANSAS...

CITY           SKY/WX    TMP DP  RH WIND       PRES   REMARKS
GOODLAND       CLEAR     39  19  44 NW7       30.11R WCI  34
HILL CITY      CLOUDY    36  33  89 W5        30.08R WCI  32
NORTON         CLEAR     36  25  64 SW7       30.07R WCI  30
PHILLIPSBURG   CLEAR     39  36  87 W3        30.07R
SMITH CENTER   CLEAR     36  34  93 W3        30.07R
HAYS           CLOUDY    42  37  82 NW7       30.06S
RUSSELL        CLOUDY    47  41  80 N7        30.04R
CONCORDIA      MOCLDY    48  43  82 W3        30.05R
SALINA         CLOUDY    55  43  63 N7        30.04R
TOPEKA         TSTM      53  51  93 NW7       30.00R



USA.gov is the U.S. government's official web portal to all federal, state and local government web resources and services.